User: anonymous   Login
Location: *
(38.4303°S, 157.0822°W)
Time: 07:15:57
(UTC+00:00)
Language:

USA 59 Rocket - Orbit

View from above orbital plane
View from above orbital plane
View from above satellite
View from above satellite

Ground track
Ground track

The orbit data is extracted from the following two-line orbital elements,

1 20682U 90050B   24201.91215090  .00007539  00000-0  60550-3 0  9991
2 20682  63.2991 281.0092 0912343  69.4760 300.1715 13.52937549  9011
Epoch (UTC): 19 July 2024 21:53:29
Eccentricity: 0.0912343
inclination: 63.2991°
perigee height: 383 km
apogee height: 1740 km
right ascension of ascending node: 281.0092°
argument of perigee: 69.4760°
revolutions per day: 13.52937549
mean anomaly at epoch: 300.1715°
orbit number at epoch: 901

The dashed part of the orbit path shows where the satellite is in the earth's shadow,  

DLR